| time (UTC) | temp F | wind direction | speed MPH | gust MPH | rain 1hr in | rain 24hr in | rain mn in | humidity % | barometer mb |
| 20260508132702 | 58 | 279 | 9.0 | 16.0 | 0.00 | 0.00 | 0.00 | 69 | |
| 20260508131823 | 58 | 279 | 9.0 | 19.0 | 0.00 | 0.00 | 0.00 | 69 | |
| 20260508130902 | 58 | 261 | 11.0 | 17.0 | 0.00 | 0.00 | 0.00 | 73 | |
| 20260508130003 | 58 | 273 | 10.0 | 17.0 | 0.00 | 0.00 | 0.00 | 71 | |
| 20260508125423 | 58 | 282 | 9.0 | 17.0 | 0.00 | 0.00 | 0.00 | 73 | |
| 20260508124523 | 58 | 277 | 9.0 | 17.0 | 0.00 | 0.00 | 0.00 | 73 | |
| 20260508123602 | 57 | 272 | 9.0 | 16.0 | 0.00 | 0.00 | 0.00 | 74 | |
| 20260508122723 | 57 | 274 | 9.0 | 17.0 | 0.00 | 0.00 | 0.00 | 72 | |
| 20260508121802 | 57 | 272 | 7.0 | 12.0 | 0.00 | 0.00 | 0.00 | 72 | |
| 20260508120902 | 57 | 286 | 8.0 | 13.0 | 0.00 | 0.00 | 0.00 | 70 | |
| 20260508120003 | 59 | 286 | 7.0 | 13.0 | 0.00 | 0.00 | 0.00 | 71 | |
| 20260508115402 | 57 | 253 | 7.0 | 13.0 | 0.00 | 0.00 | 0.00 | 65 | |
| 20260508114503 | 58 | 229 | 6.0 | 10.0 | 0.00 | 0.00 | 0.00 | 62 | |
| 20260508113624 | 56 | 247 | 5.0 | 8.0 | 0.00 | 0.00 | 0.00 | 66 | |
| 20260508112703 | 56 | 256 | 6.0 | 11.0 | 0.00 | 0.00 | 0.00 | 66 | |
| 20260508111803 | 56 | 271 | 7.0 | 13.0 | 0.00 | 0.00 | 0.00 | 70 | |
| 20260508110902 | 56 | 246 | 9.0 | 13.0 | 0.00 | 0.00 | 0.00 | 67 | |
| 20260508110024 | 57 | 229 | 7.0 | 14.0 | 0.00 | 0.00 | 0.00 | 63 | |
| 20260508105403 | 58 | 224 | 8.0 | 17.0 | 0.00 | 0.00 | 0.00 | 63 | |
| 20260508104524 | 58 | 226 | 8.0 | 16.0 | 0.00 | 0.00 | 0.00 | 64 | |
| 20260508103603 | 57 | 235 | 7.0 | 17.0 | 0.00 | 0.00 | 0.00 | 64 | |
| 20260508102724 | 56 | 253 | 7.0 | 12.0 | 0.00 | 0.00 | 0.00 | 65 | |
| 20260508101803 | 56 | 236 | 8.0 | 14.0 | 0.00 | 0.00 | 0.00 | 65 | |
| 20260508100923 | 56 | 219 | 6.0 | 12.0 | 0.00 | 0.00 | 0.00 | 64 | |
| 20260508100003 | 56 | 202 | 7.0 | 14.0 | 0.00 | 0.00 | 0.00 | 62 | |
| 20260508095403 | 57 | 199 | 6.0 | 14.0 | 0.00 | 0.00 | 0.00 | 63 | |
| 20260508094502 | 57 | 206 | 7.0 | 16.0 | 0.00 | 0.00 | 0.00 | 63 | |
| 20260508093603 | 55 | 223 | 6.0 | 14.0 | 0.00 | 0.00 | 0.00 | 66 | |
| 20260508092724 | 55 | 230 | 11.0 | 17.0 | 0.00 | 0.00 | 0.00 | 66 | |
| 20260508091802 | 54 | 210 | 10.0 | 18.0 | 0.00 | 0.00 | 0.00 | 66 | |
| 20260508090902 | 56 | 216 | 7.0 | 13.0 | 0.00 | 0.00 | 0.00 | 71 | |
| 20260508090004 | 55 | 214 | 9.0 | 19.0 | 0.00 | 0.00 | 0.00 | 70 | |
| 20260508085403 | 54 | 209 | 7.0 | 13.0 | 0.00 | 0.00 | 0.00 | 70 | |
| 20260508084502 | 54 | 206 | 6.0 | 12.0 | 0.00 | 0.00 | 0.00 | 70 | |
| 20260508083603 | 54 | 199 | 8.0 | 17.0 | 0.00 | 0.00 | 0.00 | 70 | |
| 20260508082703 | 55 | 193 | 8.0 | 16.0 | 0.00 | 0.00 | 0.00 | 71 | |
| 20260508081803 | 54 | 204 | 7.0 | 14.0 | 0.00 | 0.00 | 0.00 | 71 | |
| 20260508080903 | 53 | 201 | 7.0 | 16.0 | 0.00 | 0.00 | 0.00 | 73 | |
| 20260508080003 | 52 | 197 | 7.0 | 14.0 | 0.00 | 0.00 | 0.00 | 76 | |
| 20260508075403 | 52 | 193 | 7.0 | 14.0 | 0.00 | 0.00 | 0.00 | 76 | |
| 20260508074503 | 51 | 187 | 8.0 | 17.0 | 0.00 | 0.00 | 0.00 | 77 | |
| 20260508073603 | 51 | 179 | 7.0 | 17.0 | 0.00 | 0.00 | 0.00 | 78 | |
| 20260508072724 | 50 | 185 | 7.0 | 18.0 | 0.00 | 0.00 | 0.00 | 79 | |
| 20260508071803 | 50 | 180 | 7.0 | 14.0 | 0.00 | 0.00 | 0.00 | 80 | |
| 20260508070903 | 49 | 180 | 6.0 | 14.0 | 0.00 | 0.00 | 0.00 | 80 | |
| 20260508070003 | 49 | 185 | 8.0 | 19.0 | 0.00 | 0.00 | 0.00 | 80 | |
| 20260508065424 | 49 | 183 | 7.0 | 18.0 | 0.00 | 0.00 | 0.00 | 80 | |
| 20260508064524 | 49 | 180 | 8.0 | 18.0 | 0.00 | 0.00 | 0.00 | 79 | |
| 20260508063602 | 49 | 174 | 6.0 | 14.0 | 0.00 | 0.00 | 0.00 | 80 | |
| 20260508062703 | 49 | 169 | 6.0 | 13.0 | 0.00 | 0.00 | 0.00 | 80 | |
| 20260508061803 | 49 | 181 | 7.0 | 16.0 | 0.00 | 0.00 | 0.00 | 81 | |
| 20260508060903 | 49 | 169 | 6.0 | 13.0 | 0.00 | 0.00 | 0.00 | 81 | |
| 20260508060003 | 48 | 169 | 7.0 | 17.0 | 0.00 | 0.00 | 0.00 | 82 | |
| 20260508055403 | 48 | 168 | 7.0 | 17.0 | 0.00 | 0.00 | 0.00 | 82 | |
| 20260508054524 | 48 | 169 | 7.0 | 19.0 | 0.00 | 0.00 | 0.00 | 83 | |
| 20260508053603 | 48 | 167 | 6.0 | 14.0 | 0.00 | 0.00 | 0.00 | 83 | |
| 20260508052703 | 48 | 163 | 6.0 | 14.0 | 0.00 | 0.00 | 0.00 | 84 | |
| 20260508051803 | 48 | 164 | 6.0 | 14.0 | 0.00 | 0.00 | 0.00 | 84 | |
| 20260508050924 | 48 | 170 | 6.0 | 13.0 | 0.00 | 0.00 | 0.00 | 84 | |
| 20260508050003 | 47 | 176 | 7.0 | 16.0 | 0.00 | 0.00 | 0.00 | 84 | |
| 20260508045424 | 47 | 171 | 7.0 | 14.0 | 0.00 | 0.00 | 0.00 | 84 | |
| 20260508044503 | 47 | 170 | 6.0 | 13.0 | 0.00 | 0.00 | 0.00 | 84 | |
| 20260508043603 | 47 | 162 | 6.0 | 14.0 | 0.00 | 0.00 | 0.00 | 85 | |
| 20260508042724 | 46 | 161 | 6.0 | 14.0 | 0.00 | 0.00 | 0.00 | 86 | |
| 20260508041803 | 46 | 161 | 6.0 | 13.0 | 0.00 | 0.00 | 0.00 | 86 | |
| 20260508040903 | 46 | 155 | 5.0 | 13.0 | 0.00 | 0.00 | 0.00 | 86 | |
| 20260508040003 | 46 | 145 | 4.0 | 8.0 | 0.00 | 0.00 | 0.00 | 85 | |
| 20260508035403 | 46 | 141 | 5.0 | 8.0 | 0.00 | 0.00 | 0.00 | 85 | |
| 20260508034524 | 46 | 141 | 5.0 | 11.0 | 0.00 | 0.00 | 0.00 | 84 | |
| 20260508033624 | 46 | 142 | 4.0 | 7.0 | 0.00 | 0.00 | 0.00 | 84 | |
| 20260508032703 | 46 | 148 | 4.0 | 10.0 | 0.00 | 0.00 | 0.00 | 83 | |
| 20260508031824 | 46 | 148 | 4.0 | 7.0 | 0.00 | 0.00 | 0.00 | 82 | |
| 20260508030903 | 46 | 142 | 3.0 | 7.0 | 0.00 | 0.00 | 0.00 | 81 | |
| 20260508030003 | 47 | 150 | 4.0 | 8.0 | 0.00 | 0.00 | 0.00 | 81 | |
| 20260508025403 | 47 | 156 | 4.0 | 8.0 | 0.00 | 0.00 | 0.00 | 81 | |
| 20260508024503 | 47 | 157 | 4.0 | 8.0 | 0.00 | 0.00 | 0.00 | 81 | |
| 20260508023603 | 47 | 162 | 3.0 | 8.0 | 0.00 | 0.00 | 0.00 | 82 | |
| 20260508022703 | 47 | 161 | 4.0 | 8.0 | 0.00 | 0.00 | 0.00 | 82 | |
| 20260508021803 | 47 | 171 | 4.0 | 8.0 | 0.00 | 0.00 | 0.00 | 82 | |
| 20260508020903 | 47 | 168 | 4.0 | 8.0 | 0.00 | 0.00 | 0.00 | 82 | |
| 20260508020004 | 48 | 167 | 4.0 | 12.0 | 0.00 | 0.00 | 0.00 | 81 | |
| 20260508015403 | 48 | 165 | 4.0 | 11.0 | 0.00 | 0.00 | 0.00 | 81 | |
| 20260508014504 | 48 | 158 | 5.0 | 11.0 | 0.00 | 0.00 | 0.00 | 81 | |
| 20260508013603 | 48 | 164 | 5.0 | 12.0 | 0.00 | 0.00 | 0.00 | 81 | |
| 20260508012703 | 48 | 167 | 5.0 | 12.0 | 0.00 | 0.00 | 0.00 | 81 | |
| 20260508011803 | 49 | 171 | 4.0 | 8.0 | 0.00 | 0.00 | 0.00 | 80 | |
| 20260508010924 | 49 | 173 | 4.0 | 8.0 | 0.00 | 0.00 | 0.00 | 80 | |
| 20260508010003 | 49 | 175 | 4.0 | 12.0 | 0.00 | 0.00 | 0.00 | 80 | |
| 20260508005403 | 49 | 178 | 4.0 | 7.0 | 0.00 | 0.00 | 0.00 | 80 | |
| 20260508004503 | 49 | 166 | 4.0 | 12.0 | 0.00 | 0.00 | 0.00 | 80 | |
| 20260508003603 | 49 | 161 | 4.0 | 10.0 | 0.00 | 0.00 | 0.00 | 80 | |
| 20260508002724 | 49 | 165 | 3.0 | 8.0 | 0.00 | 0.00 | 0.00 | 80 | |
| 20260508001804 | 49 | 167 | 4.0 | 8.0 | 0.00 | 0.00 | 0.00 | 80 | |
| 20260508000903 | 49 | 167 | 4.0 | 10.0 | 0.00 | 0.00 | 0.00 | 80 | |
| 20260508000003 | 49 | 164 | 4.0 | 11.0 | 0.00 | 0.00 | 0.00 | 80 | |
| 20260507235404 | 49 | 162 | 5.0 | 11.0 | 0.00 | 0.00 | 0.00 | 79 | |
| 20260507234524 | 49 | 171 | 5.0 | 11.0 | 0.00 | 0.00 | 0.00 | 79 | |
| 20260507233602 | 49 | 175 | 5.0 | 12.0 | 0.00 | 0.00 | 0.00 | 78 | |
| 20260507232723 | 49 | 165 | 6.0 | 12.0 | 0.00 | 0.00 | 0.00 | 78 | |
| 20260507231802 | 49 | 169 | 5.0 | 8.0 | 0.00 | 0.00 | 0.00 | 78 | |
| 20260507230902 | 49 | 171 | 5.0 | 11.0 | 0.00 | 0.00 | 0.00 | 78 | |
| 20260507230003 | 49 | 167 | 4.0 | 12.0 | 0.00 | 0.00 | 0.00 | 78 | |
| 20260507225402 | 49 | 170 | 5.0 | 12.0 | 0.00 | 0.00 | 0.00 | 78 | |
| 20260507224502 | 49 | 193 | 5.0 | 10.0 | 0.00 | 0.00 | 0.00 | 77 | |
| 20260507223602 | 49 | 214 | 5.0 | 8.0 | 0.00 | 0.00 | 0.00 | 76 | |
| 20260507222702 | 50 | 202 | 4.0 | 7.0 | 0.00 | 0.00 | 0.00 | 75 | |
| 20260507221802 | 50 | 197 | 4.0 | 8.0 | 0.00 | 0.00 | 0.00 | 74 | |
| 20260507220902 | 50 | 185 | 4.0 | 8.0 | 0.00 | 0.00 | 0.00 | 74 | |
| 20260507220002 | 51 | 181 | 5.0 | 13.0 | 0.00 | 0.00 | 0.00 | 73 | |
| 20260507215402 | 51 | 166 | 4.0 | 8.0 | 0.00 | 0.00 | 0.00 | 73 | |
| 20260507214502 | 51 | 166 | 5.0 | 12.0 | 0.00 | 0.00 | 0.00 | 73 | |
| 20260507213602 | 51 | 154 | 5.0 | 13.0 | 0.00 | 0.00 | 0.00 | 74 | |
| 20260507212702 | 51 | 147 | 4.0 | 11.0 | 0.00 | 0.00 | 0.00 | 74 | |
| 20260507211802 | 51 | 156 | 4.0 | 8.0 | 0.00 | 0.00 | 0.00 | 74 | |
| 20260507210923 | 51 | 159 | 4.0 | 11.0 | 0.00 | 0.00 | 0.00 | 74 | |
| 20260507210002 | 51 | 160 | 5.0 | 14.0 | 0.00 | 0.00 | 0.00 | 74 | |
| 20260507205402 | 51 | 158 | 5.0 | 14.0 | 0.00 | 0.00 | 0.00 | 74 | |
| 20260507204502 | 51 | 155 | 5.0 | 12.0 | 0.00 | 0.00 | 0.00 | 74 | |
| 20260507203602 | 51 | 153 | 4.0 | 11.0 | 0.00 | 0.00 | 0.00 | 74 | |
| 20260507202702 | 50 | 153 | 4.0 | 11.0 | 0.00 | 0.00 | 0.00 | 74 | |
| 20260507201802 | 51 | 165 | 3.0 | 7.0 | 0.00 | 0.00 | 0.00 | 74 | |
| 20260507200902 | 51 | 167 | 3.0 | 6.0 | 0.00 | 0.00 | 0.00 | 74 | |
| 20260507200002 | 51 | 170 | 3.0 | 8.0 | 0.00 | 0.00 | 0.00 | 73 | |
| 20260507195402 | 51 | 181 | 4.0 | 8.0 | 0.00 | 0.00 | 0.00 | 73 | |
| 20260507194502 | 51 | 163 | 2.0 | 7.0 | 0.00 | 0.00 | 0.00 | 73 | |
| 20260507193602 | 51 | 154 | 2.0 | 7.0 | 0.00 | 0.00 | 0.00 | 72 | |
| 20260507192702 | 51 | 165 | 3.0 | 6.0 | 0.00 | 0.00 | 0.00 | 72 | |
| 20260507191802 | 52 | 159 | 3.0 | 6.0 | 0.00 | 0.00 | 0.00 | 71 | |
| 20260507190902 | 52 | 186 | 2.0 | 6.0 | 0.00 | 0.00 | 0.00 | 70 | |
| 20260507190003 | 52 | 196 | 3.0 | 7.0 | 0.00 | 0.00 | 0.00 | 70 | |
| 20260507185423 | 52 | 196 | 4.0 | 7.0 | 0.00 | 0.00 | 0.00 | 70 | |
| 20260507184502 | 52 | 195 | 6.0 | 11.0 | 0.00 | 0.00 | 0.00 | 69 | |
| 20260507183602 | 52 | 192 | 6.0 | 12.0 | 0.00 | 0.00 | 0.00 | 69 | |
| 20260507182702 | 53 | 186 | 6.0 | 16.0 | 0.00 | 0.00 | 0.00 | 68 | |
| 20260507181802 | 53 | 190 | 7.0 | 17.0 | 0.00 | 0.00 | 0.00 | 68 | |
| 20260507180902 | 53 | 178 | 7.0 | 16.0 | 0.00 | 0.00 | 0.00 | 67 | |
| 20260507180002 | 53 | 175 | 6.0 | 14.0 | 0.00 | 0.00 | 0.00 | 67 | |
| 20260507175402 | 54 | 180 | 6.0 | 14.0 | 0.00 | 0.00 | 0.00 | 66 | |
| 20260507174502 | 54 | 191 | 5.0 | 13.0 | 0.00 | 0.00 | 0.00 | 67 | |
| 20260507173603 | 54 | 183 | 6.0 | 17.0 | 0.00 | 0.00 | 0.00 | 65 | |
| 20260507172723 | 54 | 196 | 11.0 | 22.0 | 0.00 | 0.00 | 0.00 | 63 | |
| 20260507171802 | 55 | 193 | 13.0 | 26.0 | 0.00 | 0.00 | 0.00 | 62 | |
| 20260507170923 | 54 | 193 | 9.0 | 26.0 | 0.00 | 0.00 | 0.00 | 63 | |
| 20260507170002 | 54 | 190 | 10.0 | 18.0 | 0.00 | 0.00 | 0.00 | 63 | |
| 20260507165402 | 55 | 198 | 10.0 | 24.0 | 0.00 | 0.00 | 0.00 | 63 | |
| 20260507164502 | 55 | 196 | 8.0 | 19.0 | 0.00 | 0.00 | 0.00 | 65 | |
| 20260507163602 | 55 | 197 | 8.0 | 19.0 | 0.00 | 0.00 | 0.00 | 64 | |
| 20260507162702 | 54 | 200 | 10.0 | 23.0 | 0.00 | 0.00 | 0.00 | 63 | |
| 20260507161802 | 54 | 200 | 10.0 | 22.0 | 0.00 | 0.00 | 0.00 | 64 | |
| 20260507160902 | 55 | 194 | 9.0 | 20.0 | 0.00 | 0.00 | 0.00 | 63 | |
| 20260507160023 | 55 | 192 | 8.0 | 20.0 | 0.00 | 0.00 | 0.00 | 64 | |
| 20260507155402 | 55 | 196 | 7.0 | 13.0 | 0.00 | 0.00 | 0.00 | 65 | |
| 20260507154502 | 54 | 194 | 7.0 | 17.0 | 0.00 | 0.00 | 0.00 | 66 | |
| 20260507153603 | 54 | 197 | 8.0 | 17.0 | 0.00 | 0.00 | 0.00 | 66 | |
| 20260507152702 | 54 | 196 | 9.0 | 20.0 | 0.00 | 0.00 | 0.00 | 67 | |
| 20260507151802 | 54 | 199 | 7.0 | 14.0 | 0.00 | 0.00 | 0.00 | 68 | |
| 20260507150902 | 54 | 199 | 9.0 | 18.0 | 0.00 | 0.00 | 0.00 | 68 | |
| 20260507150002 | 54 | 209 | 9.0 | 17.0 | 0.00 | 0.00 | 0.00 | 67 | |
| 20260507145403 | 54 | 207 | 11.0 | 18.0 | 0.00 | 0.00 | 0.00 | 67 | |
| 20260507144502 | 54 | 203 | 7.0 | 14.0 | 0.00 | 0.00 | 0.00 | 67 | |
| 20260507143602 | 53 | 203 | 10.0 | 19.0 | 0.00 | 0.00 | 0.00 | 69 | |
| 20260507142703 | 53 | 199 | 10.0 | 19.0 | 0.00 | 0.00 | 0.00 | 68 | |
| 20260507141802 | 53 | 194 | 9.0 | 19.0 | 0.00 | 0.00 | 0.00 | 68 | |
| 20260507140903 | 53 | 200 | 9.0 | 19.0 | 0.00 | 0.00 | 0.00 | 68 | |
| 20260507140002 | 53 | 200 | 10.0 | 19.0 | 0.00 | 0.00 | 0.00 | 68 | |
| 20260507135423 | 53 | 196 | 10.0 | 18.0 | 0.00 | 0.00 | 0.00 | 66 | |
| 20260507134502 | 54 | 198 | 9.0 | 16.0 | 0.00 | 0.00 | 0.00 | 67 | |
| 20260507133602 | 54 | 208 | 10.0 | 19.0 | 0.00 | 0.00 | 0.00 | 65 |